Location: Cartignies
(50.0929°N, 3.8447°E)
Time: 14:57:30
(UTC+00:00)

Spot 4 Rocket - Pass Details

Date: 12 January 2026
Orbit: 768 x 774 km, 98.8° (Epoch: 16 February)

Event Time Altitude Azimuth Distance (km) Brightness Sun altitude
Rises 17:45:44 0° 153° (SSE) 3,241 7.1 -15.2°
Reaches altitude 10° 17:48:02 10° 150° (SSE) 2,318 6.3 -15.6°
Maximum altitude 17:53:05 63° 70° (ENE) 863 4.0 -16.4°
Drops below altitude 10° 17:58:10 10° 350° (N) 2,333 6.5 -17.2°
Sets 18:00:30 0° 348° (NNW) 3,264 7.3 -17.5°
